FW1655 Weather Reports


Display with metric or nautical units.
time (UTC)temp
F
wind
direction
speed
MPH
gust
MPH
rain 1hr
in
rain 24hr
in
rain mn
in
humidity
%
barometer
mb
20181210110045 0 0.0 0.0 0.00 0.00 0.00 1042.6
20181210104514 0 0.0 0.0 0.00 0.00 0.00 1042.4
20181210103013 0 0.0 0.0 0.00 0.00 0.00 1042.4
20181210101504 0 0.0 0.0 0.00 0.00 0.00 1042.4
20181210100220 0 0.0 0.0 0.00 0.00 0.00 1042.4
20181210094647 0 0.0 0.0 0.00 0.00 0.00 1042.4
20181210093132 0 0.0 0.0 0.00 0.00 0.00 1042.5
20181210091641 0 0.0 0.0 0.00 0.00 0.00 1042.5
20181210090114 0 0.0 0.0 0.00 0.00 0.00 1042.6
20181210084546 0 0.0 0.0 0.00 0.00 0.00 1042.5
20181210083111 0 0.0 0.0 0.00 0.00 0.00 1042.5
20181210081604 0 0.0 0.0 0.00 0.00 0.00 1042.7
20181210080041 0 0.0 0.0 0.00 0.00 0.00 1042.9
20181210074526 0 0.0 0.0 0.00 0.00 0.00 1043.2
20181210073019 0 0.0 0.0 0.00 0.00 0.00 1043.2
20181210071535 0 0.0 0.0 0.00 0.00 0.00 1043.2
20181210070037 0 0.0 0.0 0.00 0.00 0.00 1043.1
20181210064503 0 0.0 0.0 0.00 0.00 0.00 1043.2
20181210063156 0 0.0 0.0 0.00 0.00 0.00 1043.3
20181210061613 0 0.0 0.0 0.00 0.00 0.00 1043.3
20181210060134 27 336 0.0 4.0 0.00 0.00 0.00 68 1043.3
20181210054601 28 312 0.0 2.0 0.00 0.00 0.00 69 1043.6
20181210053110 28 323 0.0 1.0 0.00 0.00 0.00 68 1044.1
20181210051622 28 295 0.0 1.0 0.00 0.00 0.00 68 1044.4
20181210050100 27 340 0.0 0.0 0.00 0.00 0.00 70 1044.6
20181210044544 27 286 0.0 0.0 0.00 0.00 0.00 71 1044.8
20181210043055 27 301 0.0 0.0 0.00 0.00 0.00 72 1045.0
20181210041542 27 295 0.0 0.0 0.00 0.00 0.00 72 1045.1
20181210040112 27 256 0.0 0.0 0.00 0.00 0.00 72 1045.2
20181210034543 28 274 0.0 0.0 0.00 0.00 0.00 72 1045.3
20181210033034 28 263 0.0 0.0 0.00 0.00 0.00 72 1045.3
20181210031620 28 237 0.0 0.0 0.00 0.00 0.00 74 1045.3
20181210030042 28 315 0.0 0.0 0.00 0.00 0.00 70 1045.4
20181210024654 28 250 0.0 1.0 0.00 0.00 0.00 70 1045.4
20181210023111 29 248 0.0 0.0 0.00 0.00 0.00 72 1045.6
20181210021559 29 245 0.0 0.0 0.00 0.00 0.00 71 1045.5
20181210020114 29 263 0.0 6.0 0.00 0.00 0.00 69 1045.6
20181210014610 29 250 1.0 5.0 0.00 0.00 0.00 68 1045.7
20181210013042 29 235 0.0 6.0 0.00 0.00 0.00 69 1045.8
20181210011559 29 231 0.0 7.0 0.00 0.00 0.00 68 1046.1
20181210010028 29 282 0.0 8.0 0.00 0.00 0.00 69 1046.1
20181210004530 30 257 0.0 7.0 0.00 0.00 0.00 70 1046.1
20181210003050 29 243 0.0 5.0 0.00 0.00 0.00 70 1046.1
20181210001517 29 246 0.0 4.0 0.00 0.00 0.00 70 1046.3
20181210000044 30 245 0.0 3.0 0.00 0.00 0.00 70 1046.2
20181209234534 30 235 0.0 1.0 0.00 0.00 0.00 70 1046.4
20181209233024 30 269 0.0 3.0 0.00 0.00 0.00 70 1046.4
20181209231527 30 253 0.0 3.0 0.00 0.00 0.00 70 1046.4
20181209230034 30 263 0.0 5.0 0.00 0.00 0.00 69 1046.5
20181209224512 31 281 0.0 6.0 0.00 0.00 0.00 69 1046.9
20181209223009 31 245 0.0 7.0 0.00 0.00 0.00 68 1047.2
20181209221515 31 269 0.0 3.0 0.00 0.00 0.00 69 1047.3
20181209220008 31 224 0.0 4.0 0.00 0.00 0.00 69 1047.5
20181209214649 31 250 0.0 3.0 0.00 0.00 0.00 69 1047.9
20181209213231 31 229 0.0 0.0 0.00 0.00 0.00 68 1048.2
20181209211730 32 214 0.0 1.0 0.00 0.00 0.00 67 1048.2
20181209210134 32 248 0.0 6.0 0.00 0.00 0.00 66 1048.4
20181209204636 33 260 0.0 5.0 0.00 0.00 0.00 65 1048.4
20181209203133 33 287 0.0 7.0 0.00 0.00 0.00 64 1048.7
20181209201658 33 245 4.0 9.0 0.00 0.00 0.00 63 1048.8
20181209200210 34 248 1.0 6.0 0.00 0.00 0.00 62 1049.0
20181209194610 34 291 0.0 5.0 0.00 0.00 0.00 62 1049.4
20181209191636 35 304 0.0 8.0 0.00 0.00 0.00 62 1049.6
20181209190108 34 278 3.0 10.0 0.00 0.00 0.00 61 1049.9
20181209184609 35 283 1.0 10.0 0.00 0.00 0.00 62 1049.8
20181209183120 34 310 4.0 12.0 0.00 0.00 0.00 62 1050.1
20181209181543 34 256 0.0 9.0 0.00 0.00 0.00 63 1050.3
20181209180048 34 238 2.0 12.0 0.00 0.00 0.00 61 1050.5
20181209174555 34 274 2.0 8.0 0.00 0.00 0.00 60 1050.8
20181209173106 34 256 0.0 4.0 0.00 0.00 0.00 61 1050.9
20181209171535 33 235 2.0 11.0 0.00 0.00 0.00 62 1050.8
20181209170022 33 280 2.0 8.0 0.00 0.00 0.00 62 1051.0
20181209164519 32 327 1.0 10.0 0.00 0.00 0.00 63 1051.3
20181209163040 32 259 0.0 8.0 0.00 0.00 0.00 66 1051.8
20181209161530 31 244 2.0 9.0 0.00 0.00 0.00 68 1052.2
20181209160010 30 274 1.0 8.0 0.00 0.00 0.00 70 1052.5
20181209154502 30 284 0.0 9.0 0.00 0.00 0.00 70 1053.0
20181209153155 29 331 1.0 6.0 0.00 0.00 0.00 71 1053.2
20181209151653 28 298 1.0 7.0 0.00 0.00 0.00 73 1053.6
20181209150215 27 277 0.0 7.0 0.00 0.00 0.00 75 1053.6
20181209144633 26 288 0.0 4.0 0.00 0.00 0.00 77 1053.7
20181209143102 25 325 0.0 3.0 0.00 0.00 0.00 78 1053.8
20181209141556 25 255 0.0 5.0 0.00 0.00 0.00 78 1053.9
20181209140139 24 285 0.0 5.0 0.00 0.00 0.00 79 1053.9
20181209134627 24 200 1.0 5.0 0.00 0.00 0.00 79 1054.1
20181209133141 23 238 0.0 3.0 0.00 0.00 0.00 81 1054.2
20181209131553 22 321 0.0 4.0 0.00 0.00 0.00 82 1054.4
20181209130116 22 249 0.0 1.0 0.00 0.00 0.00 84 1054.1
20181209124600 21 253 0.0 1.0 0.00 0.00 0.00 84 1054.1
20181209123039 21 236 0.0 1.0 0.00 0.00 0.00 85 1054.3
20181209121537 20 233 0.0 1.0 0.00 0.00 0.00 85 1054.2
20181209120110 0 0.0 0.0 0.00 0.00 0.00 1054.3
20181209114523 0 0.0 0.0 0.00 0.00 0.00 1054.5
20181209113014 0 0.0 0.0 0.00 0.00 0.00 1054.7
20181209111552 0 0.0 0.0 0.00 0.00 0.00 1054.5